Location: Mountain View
(42.7042°N, 73.6523°W)
Time: 14:54:41
(UTC+00:00)

Tiangong - Visible Passes

Search period start: 15 December 2025 00:00
Search period end: 25 December 2025 00:00
Orbit: 384 x 395 km, 41.5° (Epoch: 14 December)

Date Brightness Start Highest point End Pass type
(mag) Time Alt. Az. Time Alt. Az. Time Alt. Az.
22 Dec -0.3 23:18:27 10° SSW 23:20:30 23° S 23:20:30 23° S visible
23 Dec 0.1 22:20:49 10° SSW 22:22:53 16° SSE 22:24:57 10° ESE visible
23 Dec 0.7 23:56:18 10° WSW 23:57:17 18° WSW 23:57:17 18° WSW visible
24 Dec -1.2 22:58:05 10° SW 23:01:03 37° SSE 23:01:41 33° SE visible
